Date String (YYYY-MM-DD hh:mm:ss) UTC,Instrument flags,Ambient pressure (hPa),Sample flow (lpm),Bypass flow (lpm),Sample temperature (°C),Ambient temperature (°C),ASC tube jacket temperature (°C),LED temperature (°C),Box temperature (°C),Sample RH (%),Span deviation,Mass concentration (μg/m³),Mass concentration (μg/m³),Mass concentration (μg/m³)
DateTimeUTC,F1_M11,P_M11,Q1_M11,Q2_M11,T1_M11,T2_M11,T3_M11,T4_M11,T5_M11,U1_M11,ZSPAN_M11,X0_M11,X2_M11,X1_M11
2022-05-18 17:00:00,,0827.0,5.00,0.00,29.4,28.4,00.0,38.3,31.1,19.5,0000.0,0009.02,0003.25,0002.07
2022-05-18 17:01:00,,0827.0,5.00,0.00,29.4,28.4,00.0,38.3,31.1,19.2,0000.0,0011.40,0003.41,0002.12
2022-05-18 17:02:00,,0827.1,5.00,0.00,29.4,28.4,00.0,38.3,31.1,18.8,0000.0,0012.46,0003.46,0002.13
2022-05-18 17:03:00,,0827.0,5.00,0.00,29.4,28.4,00.0,38.3,31.1,18.9,0000.0,0011.89,0003.47,0002.15
2022-05-18 17:04:00,,0827.0,5.00,0.00,29.4,28.4,00.0,38.3,31.2,19.1,0000.0,0011.17,0003.46,0002.16
2022-05-18 17:05:00,,0827.0,5.00,0.00,29.4,28.5,00.0,38.3,31.2,18.7,0000.0,0011.47,0003.49,0002.15
2022-05-18 17:06:00,,0827.0,5.00,0.00,29.4,28.5,00.0,38.3,31.2,18.1,0000.0,0011.42,0003.51,0002.15
2022-05-18 17:07:00,,0826.9,4.99,0.00,29.4,28.5,00.0,38.3,31.2,17.7,0000.0,0011.10,0003.47,0002.14
2022-05-18 17:08:00,,0826.9,5.00,0.00,29.4,28.5,00.0,38.3,31.2,18.1,0000.0,0011.12,0003.46,0002.13
2022-05-18 17:09:00,,0826.9,5.03,0.00,29.4,28.5,00.0,38.3,31.3,18.0,0000.0,0011.03,0003.48,0002.12
2022-05-18 17:12:00,,1013.0,5.00,11.67,25.0,25.0,00.0,40.0,20.0,35.0,0000.0,0000.00,0000.00,0000.00
2022-05-18 17:13:00,,1013.0,4.98,5.80,11.8,11.8,00.0,00.6,09.4,35.0,0000.0,0000.00,0000.00,0000.00
2022-05-18 17:14:00,,0933.7,4.97,0.00,13.4,14.9,00.0,15.7,16.9,26.9,0000.0,0001.14,0000.18,0000.14
2022-05-18 17:15:00,,0826.8,4.99,0.00,29.6,28.8,00.0,34.4,31.4,17.1,0000.0,0007.09,0002.95,0000.92
2022-05-18 17:16:00,,0826.9,4.99,0.00,29.6,28.8,00.0,36.0,31.4,17.2,0000.0,0007.22,0003.18,0001.46
2022-05-18 17:17:00,,0827.0,5.00,0.00,29.6,28.9,00.0,36.8,31.4,17.3,0000.0,0007.88,0003.33,0001.81
2022-05-18 17:18:00,,0827.0,4.99,0.00,29.6,28.9,00.0,37.3,31.4,17.5,0000.0,0007.48,0003.27,0001.99
2022-05-18 17:19:00,,0827.0,5.00,0.00,29.6,29.0,00.0,37.6,31.5,18.0,0000.0,0007.37,0003.31,0002.11
2022-05-18 17:20:00,,0826.9,5.00,0.00,29.7,29.0,00.0,37.9,31.5,18.2,0000.0,0007.42,0003.37,0002.18
2022-05-18 17:21:00,,0827.0,4.99,0.00,29.7,29.1,00.0,38.0,31.6,18.3,0000.0,0007.40,0003.39,0002.19
2022-05-18 17:22:00,,0827.2,5.00,0.00,29.7,29.2,00.0,38.2,31.6,17.4,0000.0,0007.72,0003.44,0002.22
2022-05-18 17:23:00,,0827.0,5.02,0.00,29.8,29.2,00.0,38.2,31.7,17.4,0000.0,0007.71,0003.45,0002.23
2022-05-18 17:24:00,,0827.0,4.99,0.00,29.8,29.3,00.0,38.3,31.7,17.6,0000.0,0007.75,0003.43,0002.26
2022-05-18 17:25:00,,0826.8,5.01,0.00,29.8,29.3,00.0,38.4,31.7,18.0,0000.0,0008.32,0003.44,0002.28
2022-05-18 17:26:00,,0826.8,5.00,0.00,29.9,29.3,00.0,38.4,31.7,18.9,0000.0,0008.61,0003.61,0002.47
2022-05-18 17:27:00,,0826.8,5.00,0.00,29.9,29.1,00.0,38.5,31.6,18.9,0000.0,0008.97,0003.74,0002.64
2022-05-18 17:28:00,,0826.8,5.01,0.00,29.8,28.0,00.0,38.4,31.4,18.9,0000.0,0009.13,0003.89,0002.87
2022-05-18 17:29:00,,0826.9,4.97,0.00,29.8,27.8,00.0,38.4,31.4,18.8,0000.0,0009.44,0003.94,0002.93
2022-05-18 17:30:00,,0827.1,4.98,0.00,29.7,27.8,00.0,38.4,31.4,18.2,0000.0,0010.29,0003.99,0003.00
2022-05-18 17:31:00,,0827.1,5.01,0.00,29.7,27.9,00.0,38.4,31.4,18.8,0000.0,0010.96,0004.04,0003.05
2022-05-18 17:32:00,,0827.0,5.00,0.00,29.7,28.1,00.0,38.4,31.4,18.5,0000.0,0011.12,0004.09,0003.10
2022-05-18 17:33:00,,0827.1,5.01,0.00,29.7,28.3,00.0,38.5,31.5,18.0,0000.0,0012.52,0004.19,0003.15
2022-05-18 17:34:00,,0827.1,4.99,0.00,29.7,28.4,00.0,38.5,31.5,17.5,0000.0,0013.97,0004.20,0003.17
2022-05-18 17:35:00,,0826.9,5.01,0.00,29.7,28.5,00.0,38.5,31.6,17.6,0000.0,0015.03,0004.26,0003.19
2022-05-18 17:36:00,,0826.9,5.01,0.00,29.7,28.6,00.0,38.5,31.6,17.5,0000.0,0014.61,0004.28,0003.21
2022-05-18 17:37:00,,0826.9,4.99,0.00,29.7,28.7,00.0,38.5,31.5,17.1,0000.0,0014.41,0004.18,0003.17
2022-05-18 17:38:00,,0827.2,5.00,0.00,29.7,28.7,00.0,38.5,31.5,17.8,0000.0,0014.02,0004.06,0003.08
2022-05-18 17:39:00,,0827.2,5.00,0.00,29.7,28.8,00.0,38.5,31.6,18.4,0000.0,0013.99,0004.04,0003.05
2022-05-18 17:40:00,,0827.0,5.01,0.00,29.8,28.9,00.0,38.6,31.6,18.8,0000.0,0014.40,0004.24,0003.19
2022-05-18 17:41:00,,0826.8,5.00,0.00,29.8,28.9,00.0,38.6,31.7,18.7,0000.0,0014.12,0004.33,0003.26
2022-05-18 17:42:00,,0826.8,4.99,0.00,29.8,29.0,00.0,38.6,31.8,18.1,0000.0,0014.41,0004.41,0003.34
2022-05-18 17:43:00,,0826.7,5.00,0.00,29.9,28.8,00.0,38.6,31.7,18.3,0000.0,0014.53,0004.53,0003.44
2022-05-18 17:44:00,,0826.8,5.01,0.00,29.8,28.0,00.0,38.5,31.5,18.2,0000.0,0013.86,0004.62,0003.53
2022-05-18 17:45:00,,0826.8,5.00,0.00,29.7,27.5,00.0,38.5,31.3,17.8,0000.0,0011.91,0004.74,0003.63
2022-05-18 17:46:00,,0826.8,4.99,0.00,29.7,27.5,00.0,38.5,31.3,18.1,0000.0,0011.20,0004.81,0003.71
2022-05-18 17:47:00,,0826.8,5.00,0.00,29.7,27.6,00.0,38.5,31.3,17.6,0000.0,0011.19,0004.85,0003.77
2022-05-18 17:48:00,,0826.7,5.00,0.00,29.6,27.7,00.0,38.5,31.3,18.2,0000.0,0011.92,0004.96,0003.83
2022-05-18 17:49:00,,0826.8,5.00,0.00,29.6,27.9,00.0,38.5,31.4,17.9,0000.0,0012.28,0005.06,0003.89
2022-05-18 17:50:00,,0826.7,5.00,0.00,29.6,28.1,00.0,38.5,31.4,17.8,0000.0,0012.73,0005.02,0003.88
2022-05-18 17:51:00,,0826.7,5.00,0.00,29.7,28.2,00.0,38.5,31.5,17.4,0000.0,0012.32,0004.85,0003.78
2022-05-18 17:52:00,,0826.8,5.01,0.00,29.7,28.4,00.0,38.5,31.5,17.7,0000.0,0012.21,0004.80,0003.73
2022-05-18 17:53:00,,0826.7,4.99,0.00,29.7,28.5,00.0,38.5,31.6,17.1,0000.0,0011.32,0004.72,0003.66
2022-05-18 17:54:00,,0826.7,4.99,0.00,29.7,28.6,00.0,38.5,31.6,17.6,0000.0,0011.24,0004.60,0003.57
2022-05-18 17:55:00,,0826.7,5.01,0.00,29.8,28.8,00.0,38.5,31.7,17.2,0000.0,0011.37,0004.46,0003.47
2022-05-18 17:56:00,,0826.7,5.00,0.00,29.8,28.8,00.0,38.5,31.7,17.8,0000.0,0011.35,0004.38,0003.39
2022-05-18 17:57:00,,0826.7,4.99,0.00,29.8,28.9,00.0,38.6,31.7,18.7,0000.0,0012.01,0004.37,0003.36
2022-05-18 17:58:00,,0826.7,5.01,0.00,29.8,29.0,00.0,38.6,31.7,17.7,0000.0,0012.57,0004.38,0003.33
2022-05-18 17:59:00,,0826.7,5.01,0.00,29.9,28.8,00.0,38.6,31.7,17.1,0000.0,0012.07,0004.32,0003.29
